Tracking 20710 objects as of 30-May-2020
HD Live streaming from Space Station
objects crossing your sky now

FENGYUN 1C DEB

Track FENGYUN 1C DEB now!
10-day predictions


NORAD ID: 41832
Int'l Code: 1999-025EYK
Perigee: 814.6 km
Apogee: 906.6 km
Inclination: 98.9 °
Period: 102.0 minutes
Semi major axis: 7231 km
RCS: Unknown
Launch date: May 10, 1999
Source: People's Republic of China (PRC)
Launch site: Taiyaun Space Center, China (TSC)

Note: This is SATELLITE DEBRIS
aabbcc
Your satellite tracking list
Your tracking list is empty




NASA's NSSDC Master Catalog

Two Line Element Set (TLE):
1 41832U 99025EYK 20150.40190920  .00000594  00000-0  34402-3 0  9990
2 41832  98.8740 211.8994 0063622 236.9640 122.5409 14.11738104187187
Source of the keplerian elements: AFSPC